Location: Banff
(51.1667°N, 115.5667°W)
Time: 08:24:42
(UTC+00:00)

N. Korean satellite - Pass Details

Date: 28 November 2022
Orbit: 407 x 442 km, 97.3° (Epoch: 04 February)

Event Time Altitude Azimuth Distance (km) Brightness Sun altitude
Rises 12:02:38 0° 28° (NNE) 2,532 10.6 -30.1°
Reaches altitude 10° 12:05:24 10° 52° (NE) 1,647 9.9 -29.7°
Maximum altitude 12:07:34 15° 90° (E) 1,343 9.6 -29.3°
Drops below altitude 10° 12:09:43 10° 128° (SE) 1,632 9.8 -29.0°
Sets 12:12:26 0° 152° (SSE) 2,495 10.5 -28.6°
